Regional Weather Roundup
Issued by NWS

Home | Current Version | Previous Version | Graphics & Text | Print | Product List | Glossary On
Versions: 1 2 3 4 5 6 7 8 9 10 11 12 13 14 15 16 17 18 19 20 21 22 23 24 25 26 27 28 29 30 31 32 33 34 35 36 37 38 39 40 41 42 43 44 45 46 47 48 49 50
000
ASUS43 KOAX 110202
RWRNE

WEATHER ROUNDUP FOR NEBRASKA
NATIONAL WEATHER SERVICE OMAHA NE
800 PM CST WED FEB 10 2016

NOTES: SATELLITE DATA IS BEING USED TO AUGMENT CLOUD COVER ABOVE
       12000 FEET.
       "FAIR" INDICATES FEW OR NO CLOUDS BELOW 12,000 FEET WITH NO
       SIGNIFICANT WEATHER AND/OR OBSTRUCTIONS TO VISIBILITY.

  * THESE STATIONS DO NOT REPORT WEATHER SUCH AS RAIN...SNOW OR FOG.

NEZ001>004-019>022-054>056-110300-
NEBRASKA PANHANDLE

CITY           SKY/WX    TMP DP  RH WIND       PRES   REMARKS
SCOTTSBLUFF    CLEAR     41  26  55 W8        30.11R
ALLIANCE       CLEAR     36  29  75 W7        30.07R WCI  30
CHADRON        CLEAR     35  25  66 NW3       30.08R
KIMBALL        CLOUDY    41  25  52 NW20G26   30.14R
SIDNEY         CLOUDY    39  28  64 W13       30.11R WCI  31
$$

NEZ057>060-069>072-079>082-110300-
SOUTHWEST NEBRASKA

CITY           SKY/WX    TMP DP  RH WIND       PRES   REMARKS
NORTH PLATTE   CLOUDY    44  29  55 N9        30.02R
IMPERIAL       CLOUDY    39  29  67 W10       30.05R WCI  32
LEXINGTON      CLOUDY    37  31  77 NW7       30.01R WCI  32
MCCOOK         CLOUDY    40  30  67 CALM      30.03R
$$

NEZ005>010-023>029-035>040-094-110300-
NORTH CENTRAL NEBRASKA

CITY           SKY/WX    TMP DP  RH WIND       PRES   REMARKS
VALENTINE      CLEAR     34  28  79 NE10      30.08R WCI  26
AINSWORTH      CLEAR     34  29  83 N5        30.07R WCI  30
BROKEN BOW     CLOUDY    42  30  62 N13       30.02R
ORD            CLOUDY    34  29  82 NE12      30.03R WCI  25
$$

NEZ041-046>049-061>064-073>077-083>087-110300-
SOUTH CENTRAL NEBRASKA

CITY           SKY/WX    TMP DP  RH WIND       PRES   REMARKS
GRAND ISLAND   CLOUDY    32  28  85 NE10      30.04R WCI  24
AURORA         CLOUDY    32  29  88 NE7       30.02R WCI  26
HASTINGS       CLOUDY    39  31  72 NE18      29.99R WCI  30
HEBRON         PTCLDY    35  32  87 CALM      29.99R
KEARNEY *      CLOUDY    41  30  65 N16       30.01R
YORK           CLOUDY    32  28  86 NE10      30.03R WCI  24
$$

NEZ011>018-030>034-042>045-110300-
NORTHEAST NEBRASKA

CITY           SKY/WX    TMP DP  RH WIND       PRES   REMARKS
NORFOLK        CLOUDY    23  19  85 NE7       30.08R WCI  15
ALBION         CLOUDY    30  26  85 NE7       30.06R WCI  23
BLAIR          CLOUDY    24  21  87 NE14      30.06R WCI  12
COLUMBUS *     CLOUDY    28  18  64 NE9       30.06R WCI  20
FREMONT        CLOUDY    24  19  83 NE9       30.09R WCI  14
TEKAMAH        CLOUDY    22  17  81 NE8       30.11R WCI  12
$$

NEZ050>053-065>068-078-088>093-110300-
SOUTHEAST NEBRASKA

CITY           SKY/WX    TMP DP  RH WIND       PRES   REMARKS
LINCOLN        CLOUDY    31  25  78 N8        30.05R WCI  23
OMAHA EPPLEY   CLOUDY    25  19  78 NE10      30.09R WCI  15
BEATRICE       PTCLDY    34  29  81 N8        30.01R WCI  27
FALLS CITY     CLOUDY    34  22  61 NE7       30.00R WCI  28
NEBRASKA CITY  PTCLDY    32  25  74 NE5       30.01R WCI  28
$$

NEZ044-045-051>053-067-110300-
OMAHA AREA

CITY           SKY/WX    TMP DP  RH WIND       PRES   REMARKS
OMAHA EPPLEY   CLOUDY    25  19  78 NE10      30.09R WCI  15
BLAIR          CLOUDY    24  21  87 NE14      30.06R WCI  12
FREMONT        CLOUDY    24  19  83 NE9       30.09R WCI  14
OFFUTT AFB     CLOUDY    26  22  85 NE8G17    30.06R WCI  17
WAHOO          FAIR      27  23  87 NE14      30.07R WCI  15
$$



USA.gov is the U.S. government's official web portal to all federal, state and local government web resources and services.